Location: Unspecified
(43.4680°N, 87.1740°E)
Time: 13:13:51
(UTC+00:00)

NOAA 11 - Pass Details

Date: 17 January 2020
Orbit: 832 x 850 km, 98.4° (Epoch: 20 February)

Event Time Altitude Azimuth Distance (km) Brightness Sun altitude
Rises 12:46:42 0° 164° (SSE) 3,401 7.3 -18.6°
Reaches altitude 10° 12:49:03 10° 164° (SSE) 2,470 6.6 -19.0°
Maximum altitude 12:54:33 89° 76° (ENE) 856 4.1 -20.0°
Drops below altitude 10° 13:00:05 10° 347° (NNW) 2,482 6.7 -21.0°
Sets 13:02:27 0° 347° (NNW) 3,420 7.4 -21.4°
